| time (UTC) | temp C | wind direction | speed KPH | gust KPH | rain 1hr cm | rain 24hr cm | rain mn cm | humidity % | barometer mb |
| 20260504223203 | 15 | 344 | 4.8 | 9.7 | 0.00 | 0.00 | 2.06 | 76 | 1006.1 |
| 20260504223103 | 15 | 340 | 4.8 | 9.7 | 0.00 | 0.00 | 2.06 | 76 | 1005.9 |
| 20260504223003 | 15 | 340 | 4.8 | 9.7 | 0.00 | 0.00 | 2.06 | 75 | 1005.9 |
| 20260504222903 | 15 | 343 | 4.8 | 9.7 | 0.00 | 0.00 | 2.06 | 75 | 1006.4 |
| 20260504222803 | 15 | 342 | 4.8 | 12.9 | 0.00 | 0.00 | 2.06 | 75 | 1005.9 |
| 20260504222717 | 15 | 339 | 4.8 | 17.7 | 0.00 | 0.00 | 2.06 | 75 | 1005.9 |
| 20260504222703 | 15 | 339 | 4.8 | 17.7 | 0.00 | 0.00 | 2.06 | 75 | 1006.0 |
| 20260504222603 | 15 | 343 | 4.8 | 17.7 | 0.00 | 0.00 | 2.06 | 75 | 1006.1 |
| 20260504222403 | 15 | 348 | 6.4 | 17.7 | 0.00 | 0.00 | 2.06 | 75 | 1005.9 |
| 20260504222304 | 15 | 349 | 6.4 | 17.7 | 0.00 | 0.00 | 2.06 | 74 | 1006.0 |
| 20260504222203 | 15 | 349 | 6.4 | 17.7 | 0.00 | 0.00 | 2.06 | 75 | 1005.9 |
| 20260504222103 | 15 | 351 | 6.4 | 17.7 | 0.00 | 0.00 | 2.06 | 74 | 1005.8 |
| 20260504222003 | 15 | 349 | 8.0 | 17.7 | 0.00 | 0.00 | 2.06 | 74 | 1005.8 |
| 20260504221903 | 15 | 349 | 8.0 | 17.7 | 0.00 | 0.00 | 2.06 | 74 | 1005.9 |
| 20260504221803 | 15 | 347 | 8.0 | 17.7 | 0.00 | 0.00 | 2.06 | 74 | 1005.9 |
| 20260504221719 | 15 | 347 | 8.0 | 17.7 | 0.00 | 0.00 | 2.06 | 74 | 1005.9 |
| 20260504221703 | 15 | 347 | 8.0 | 17.7 | 0.00 | 0.00 | 2.06 | 74 | 1005.6 |
| 20260504221603 | 15 | 345 | 8.0 | 17.7 | 0.00 | 0.00 | 2.06 | 74 | 1005.8 |
| 20260504221403 | 15 | 342 | 8.0 | 16.1 | 0.00 | 0.00 | 2.06 | 74 | 1005.9 |
| 20260504221303 | 15 | 340 | 8.0 | 16.1 | 0.00 | 0.00 | 2.06 | 73 | 1005.9 |
| 20260504221216 | 15 | 341 | 8.0 | 16.1 | 0.00 | 0.00 | 2.06 | 73 | 1005.9 |
| 20260504221203 | 15 | 340 | 8.0 | 16.1 | 0.00 | 0.00 | 2.06 | 73 | 1005.9 |
| 20260504221103 | 15 | 340 | 8.0 | 16.1 | 0.00 | 0.00 | 2.06 | 73 | 1005.9 |
| 20260504220914 | 15 | 338 | 8.0 | 17.7 | 0.00 | 0.00 | 2.06 | 72 | 1006.0 |
| 20260504220803 | 15 | 340 | 8.0 | 17.7 | 0.00 | 0.00 | 2.06 | 72 | 1005.9 |
| 20260504220703 | 15 | 341 | 9.7 | 17.7 | 0.00 | 0.00 | 2.06 | 72 | 1005.9 |
| 20260504220603 | 15 | 343 | 9.7 | 17.7 | 0.00 | 0.00 | 2.06 | 72 | 1005.7 |
| 20260504220503 | 15 | 344 | 9.7 | 17.7 | 0.00 | 0.00 | 2.06 | 72 | 1005.9 |
| 20260504220403 | 15 | 344 | 9.7 | 17.7 | 0.00 | 0.00 | 2.06 | 72 | 1005.9 |
| 20260504220303 | 15 | 345 | 8.0 | 17.7 | 0.00 | 0.00 | 2.06 | 72 | 1005.8 |
| 20260504220203 | 15 | 346 | 8.0 | 17.7 | 0.00 | 0.00 | 2.06 | 72 | 1005.9 |
| 20260504220003 | 15 | 349 | 8.0 | 17.7 | 0.00 | 0.00 | 2.06 | 70 | 1005.9 |
| 20260504215903 | 15 | 349 | 8.0 | 17.7 | 0.00 | 0.00 | 2.06 | 69 | 1005.8 |
| 20260504215803 | 15 | 350 | 8.0 | 17.7 | 0.00 | 0.00 | 2.06 | 69 | 1005.9 |
| 20260504215703 | 15 | 351 | 8.0 | 17.7 | 0.00 | 0.00 | 2.06 | 68 | 1006.0 |
| 20260504215603 | 15 | 351 | 6.4 | 16.1 | 0.00 | 0.00 | 2.06 | 67 | 1005.8 |
| 20260504215503 | 15 | 350 | 6.4 | 16.1 | 0.00 | 0.00 | 2.06 | 67 | 1005.9 |
| 20260504215419 | 15 | 349 | 6.4 | 16.1 | 0.00 | 0.00 | 2.06 | 67 | 1005.9 |
| 20260504215403 | 15 | 348 | 6.4 | 16.1 | 0.00 | 0.00 | 2.06 | 67 | 1005.9 |
| 20260504215304 | 15 | 347 | 8.0 | 16.1 | 0.00 | 0.00 | 2.06 | 67 | 1006.0 |
| 20260504215103 | 15 | 346 | 8.0 | 16.1 | 0.00 | 0.00 | 2.06 | 66 | 1005.8 |
| 20260504215003 | 15 | 345 | 8.0 | 17.7 | 0.00 | 0.00 | 2.06 | 66 | 1005.7 |
| 20260504214903 | 15 | 345 | 8.0 | 17.7 | 0.00 | 0.00 | 2.06 | 66 | 1005.9 |
| 20260504214803 | 15 | 346 | 8.0 | 19.3 | 0.00 | 0.00 | 2.06 | 66 | 1005.8 |
| 20260504214703 | 15 | 344 | 9.7 | 19.3 | 0.00 | 0.00 | 2.06 | 66 | 1005.6 |
| 20260504214603 | 15 | 343 | 9.7 | 19.3 | 0.00 | 0.00 | 2.06 | 66 | 1005.8 |
| 20260504214503 | 15 | 342 | 9.7 | 25.7 | 0.00 | 0.00 | 2.06 | 66 | 1005.8 |
| 20260504214403 | 15 | 342 | 9.7 | 25.7 | 0.00 | 0.00 | 2.06 | 65 | 1005.8 |
| 20260504214303 | 15 | 341 | 9.7 | 25.7 | 0.00 | 0.00 | 2.06 | 66 | 1005.8 |
| 20260504214203 | 15 | 339 | 9.7 | 25.7 | 0.00 | 0.00 | 2.06 | 65 | 1005.8 |
| 20260504214103 | 15 | 338 | 11.3 | 25.7 | 0.00 | 0.00 | 2.06 | 65 | 1005.7 |
| 20260504214003 | 15 | 338 | 11.3 | 25.7 | 0.00 | 0.00 | 2.06 | 65 | 1005.6 |
| 20260504213903 | 15 | 335 | 11.3 | 25.7 | 0.00 | 0.00 | 2.06 | 65 | 1005.8 |
| 20260504213803 | 15 | 332 | 9.7 | 25.7 | 0.00 | 0.00 | 2.06 | 65 | 1005.8 |
| 20260504213703 | 15 | 330 | 11.3 | 25.7 | 0.00 | 0.00 | 2.06 | 65 | 1005.7 |
| 20260504213603 | 15 | 327 | 9.7 | 25.7 | 0.00 | 0.00 | 2.06 | 65 | 1005.5 |
| 20260504213516 | 14 | 327 | 9.7 | 25.7 | 0.00 | 0.00 | 2.06 | 65 | 1005.5 |
| 20260504213503 | 14 | 326 | 9.7 | 25.7 | 0.00 | 0.00 | 2.06 | 65 | 1005.6 |
| 20260504213403 | 14 | 324 | 9.7 | 25.7 | 0.00 | 0.00 | 2.06 | 66 | 1005.7 |
| 20260504213203 | 14 | 320 | 9.7 | 16.1 | 0.00 | 0.00 | 2.06 | 66 | 1005.6 |
| 20260504213119 | 14 | 318 | 9.7 | 16.1 | 0.00 | 0.00 | 2.06 | 66 | 1005.6 |
| 20260504213103 | 14 | 318 | 9.7 | 16.1 | 0.00 | 0.00 | 2.06 | 66 | 1005.5 |
| 20260504213003 | 14 | 316 | 9.7 | 16.1 | 0.00 | 0.00 | 2.06 | 66 | 1005.5 |
| 20260504212916 | 13 | 314 | 8.0 | 16.1 | 0.00 | 0.00 | 2.06 | 67 | 1005.5 |
| 20260504212818 | 13 | 313 | 8.0 | 16.1 | 0.00 | 0.00 | 2.06 | 67 | 1005.7 |
| 20260504212503 | 13 | 315 | 8.0 | 14.5 | 0.00 | 0.00 | 2.06 | 69 | 1005.6 |
| 20260504212417 | 12 | 314 | 8.0 | 14.5 | 0.00 | 0.00 | 2.06 | 69 | 1005.6 |
| 20260504212403 | 12 | 313 | 6.4 | 14.5 | 0.00 | 0.00 | 2.06 | 69 | 1005.5 |
| 20260504212304 | 12 | 311 | 6.4 | 14.5 | 0.00 | 0.00 | 2.06 | 71 | 1005.7 |
| 20260504212103 | 12 | 300 | 6.4 | 22.5 | 0.00 | 0.00 | 2.06 | 71 | 1005.5 |
| 20260504212003 | 12 | 300 | 6.4 | 24.1 | 0.00 | 0.00 | 2.06 | 73 | 1005.5 |
| 20260504211903 | 12 | 301 | 6.4 | 24.1 | 0.00 | 0.00 | 2.06 | 73 | 1005.5 |
| 20260504211803 | 12 | 299 | 8.0 | 24.1 | 0.00 | 0.00 | 2.06 | 73 | 1005.5 |
| 20260504211703 | 12 | 297 | 8.0 | 24.1 | 0.00 | 0.00 | 2.06 | 73 | 1005.5 |
| 20260504211603 | 12 | 294 | 8.0 | 24.1 | 0.00 | 0.00 | 2.06 | 73 | 1005.4 |
| 20260504211503 | 12 | 293 | 8.0 | 24.1 | 0.00 | 0.00 | 2.06 | 73 | 1005.5 |
| 20260504211418 | 12 | 294 | 6.4 | 24.1 | 0.00 | 0.00 | 2.06 | 73 | 1005.5 |
| 20260504211403 | 12 | 294 | 6.4 | 24.1 | 0.00 | 0.00 | 2.06 | 73 | 1005.3 |
| 20260504211303 | 11 | 297 | 6.4 | 24.1 | 0.00 | 0.00 | 2.06 | 74 | 1005.4 |
| 20260504211103 | 11 | 309 | 6.4 | 24.1 | 0.00 | 0.00 | 2.06 | 76 | 1005.0 |
| 20260504211003 | 11 | 315 | 4.8 | 24.1 | 0.00 | 0.00 | 2.06 | 79 | 1005.5 |
| 20260504210919 | 11 | 317 | 4.8 | 24.1 | 0.00 | 0.00 | 2.06 | 81 | 1005.5 |
| 20260504210903 | 11 | 320 | 3.2 | 24.1 | 0.00 | 0.00 | 2.06 | 81 | 1005.4 |
| 20260504210803 | 11 | 349 | 3.2 | 20.9 | 0.00 | 0.00 | 2.06 | 81 | 1005.1 |
| 20260504210603 | 11 | 34 | 1.6 | 3.2 | 0.00 | 0.00 | 2.06 | 80 | 1005.1 |
| 20260504210503 | 11 | 45 | 1.6 | 3.2 | 0.00 | 0.00 | 2.06 | 80 | 1005.3 |
| 20260504210417 | 11 | 51 | 1.6 | 3.2 | 0.00 | 0.00 | 2.06 | 79 | 1005.3 |
| 20260504210403 | 11 | 53 | 1.6 | 3.2 | 0.00 | 0.00 | 2.06 | 79 | 1005.1 |
| 20260504210303 | 11 | 62 | 1.6 | 3.2 | 0.00 | 0.00 | 2.06 | 79 | 1005.0 |
| 20260504210004 | 11 | 86 | 1.6 | 3.2 | 0.00 | 0.00 | 2.06 | 79 | 1005.0 |
| 20260504205903 | 11 | 92 | 1.6 | 3.2 | 0.00 | 0.00 | 2.06 | 79 | 1005.1 |
| 20260504205816 | 11 | 95 | 1.6 | 3.2 | 0.00 | 0.00 | 2.06 | 79 | 1005.1 |
| 20260504205803 | 11 | 96 | 1.6 | 3.2 | 0.00 | 0.00 | 2.06 | 79 | 1005.1 |
| 20260504205703 | 11 | 99 | 1.6 | 3.2 | 0.00 | 0.00 | 2.06 | 78 | 1005.3 |
| 20260504205503 | 11 | 102 | 1.6 | 3.2 | 0.00 | 0.00 | 2.06 | 79 | 1005.0 |
| 20260504205418 | 11 | 102 | 1.6 | 3.2 | 0.00 | 0.00 | 2.06 | 79 | 1005.0 |
| 20260504205403 | 11 | 102 | 1.6 | 3.2 | 0.00 | 0.00 | 2.06 | 79 | 1005.3 |
| 20260504205304 | 11 | 101 | 1.6 | 3.2 | 0.00 | 0.00 | 2.06 | 79 | 1005.3 |
| 20260504205103 | 11 | 98 | 1.6 | 3.2 | 0.00 | 0.00 | 2.06 | 79 | 1005.0 |
| 20260504205003 | 11 | 96 | 1.6 | 3.2 | 0.00 | 0.00 | 2.06 | 78 | 1005.0 |
| 20260504204903 | 11 | 92 | 1.6 | 3.2 | 0.00 | 0.00 | 2.06 | 77 | 1005.3 |
| 20260504204803 | 11 | 90 | 1.6 | 3.2 | 0.00 | 0.00 | 2.06 | 77 | 1005.1 |
| 20260504204703 | 11 | 88 | 1.6 | 3.2 | 0.00 | 0.00 | 2.06 | 77 | 1005.0 |
| 20260504204603 | 11 | 86 | 1.6 | 3.2 | 0.00 | 0.00 | 2.06 | 77 | 1004.9 |
| 20260504204503 | 11 | 84 | 1.6 | 3.2 | 0.00 | 0.00 | 2.06 | 77 | 1005.0 |
| 20260504204403 | 11 | 82 | 1.6 | 3.2 | 0.00 | 0.00 | 2.06 | 77 | 1005.3 |
| 20260504204303 | 11 | 78 | 1.6 | 3.2 | 0.00 | 0.00 | 2.06 | 78 | 1005.1 |
| 20260504204203 | 11 | 75 | 1.6 | 3.2 | 0.00 | 0.00 | 2.06 | 78 | 1004.9 |
| 20260504204103 | 11 | 73 | 1.6 | 3.2 | 0.00 | 0.00 | 2.06 | 77 | 1005.0 |
| 20260504204003 | 11 | 71 | 1.6 | 3.2 | 0.00 | 0.00 | 2.06 | 78 | 1004.9 |
| 20260504203903 | 11 | 70 | 1.6 | 3.2 | 0.00 | 0.00 | 2.06 | 77 | 1005.1 |
| 20260504203816 | 11 | 67 | 1.6 | 3.2 | 0.00 | 0.00 | 2.06 | 77 | 1005.1 |
| 20260504203803 | 11 | 66 | 1.6 | 3.2 | 0.00 | 0.00 | 2.06 | 77 | 1005.1 |
| 20260504203703 | 11 | 63 | 1.6 | 3.2 | 0.00 | 0.00 | 2.06 | 77 | 1005.0 |
| 20260504203503 | 11 | 60 | 1.6 | 3.2 | 0.00 | 0.00 | 2.06 | 77 | 1005.1 |
| 20260504203418 | 11 | 61 | 1.6 | 3.2 | 0.00 | 0.00 | 2.06 | 77 | 1005.1 |
| 20260504203403 | 11 | 61 | 1.6 | 3.2 | 0.00 | 0.00 | 2.06 | 77 | 1004.9 |
| 20260504203303 | 11 | 63 | 1.6 | 3.2 | 0.00 | 0.00 | 2.06 | 76 | 1005.0 |
| 20260504203103 | 11 | 69 | 1.6 | 3.2 | 0.00 | 0.00 | 2.06 | 76 | 1005.1 |
| 20260504203003 | 11 | 73 | 1.6 | 3.2 | 0.00 | 0.00 | 2.06 | 75 | 1005.0 |
| 20260504202903 | 11 | 76 | 1.6 | 3.2 | 0.00 | 0.00 | 2.06 | 74 | 1005.3 |
| 20260504202803 | 11 | 82 | 1.6 | 3.2 | 0.00 | 0.00 | 2.06 | 74 | 1005.1 |
| 20260504202703 | 11 | 87 | 1.6 | 3.2 | 0.00 | 0.00 | 2.06 | 74 | 1005.1 |
| 20260504202603 | 11 | 91 | 1.6 | 3.2 | 0.00 | 0.00 | 2.06 | 74 | 1005.4 |
| 20260504202517 | 11 | 94 | 1.6 | 3.2 | 0.00 | 0.00 | 2.06 | 74 | 1005.4 |
| 20260504202503 | 11 | 95 | 1.6 | 3.2 | 0.00 | 0.00 | 2.06 | 74 | 1005.0 |
| 20260504202403 | 12 | 98 | 1.6 | 3.2 | 0.00 | 0.00 | 2.06 | 74 | 1004.9 |
| 20260504202203 | 12 | 104 | 1.6 | 3.2 | 0.00 | 0.00 | 2.06 | 73 | 1005.3 |
| 20260504202103 | 12 | 105 | 1.6 | 3.2 | 0.00 | 0.00 | 2.06 | 73 | 1005.0 |
| 20260504202003 | 12 | 107 | 1.6 | 3.2 | 0.00 | 0.00 | 2.06 | 73 | 1005.1 |
| 20260504201903 | 12 | 108 | 1.6 | 3.2 | 0.00 | 0.00 | 2.06 | 73 | 1005.1 |
| 20260504201803 | 12 | 109 | 1.6 | 3.2 | 0.00 | 0.00 | 2.06 | 73 | 1005.0 |
| 20260504201703 | 12 | 107 | 1.6 | 3.2 | 0.00 | 0.00 | 2.06 | 73 | 1005.1 |
| 20260504201603 | 12 | 105 | 1.6 | 3.2 | 0.00 | 0.00 | 2.06 | 73 | 1005.0 |
| 20260504201503 | 12 | 102 | 1.6 | 3.2 | 0.00 | 0.00 | 2.06 | 73 | 1005.3 |
| 20260504201403 | 12 | 99 | 1.6 | 3.2 | 0.00 | 0.00 | 2.06 | 73 | 1005.0 |
| 20260504201303 | 12 | 94 | 1.6 | 3.2 | 0.00 | 0.00 | 2.06 | 73 | 1004.8 |
| 20260504201203 | 12 | 86 | 1.6 | 3.2 | 0.00 | 0.00 | 2.06 | 73 | 1005.1 |
| 20260504201103 | 12 | 75 | 3.2 | 3.2 | 0.00 | 0.00 | 2.06 | 73 | 1005.4 |
| 20260504201016 | 12 | 67 | 3.2 | 3.2 | 0.00 | 0.00 | 2.06 | 73 | 1005.4 |
| 20260504201003 | 12 | 65 | 3.2 | 3.2 | 0.00 | 0.00 | 2.06 | 73 | 1005.1 |
| 20260504200903 | 12 | 53 | 3.2 | 3.2 | 0.00 | 0.00 | 2.06 | 73 | 1005.0 |
| 20260504200703 | 12 | 31 | 3.2 | 3.2 | 0.00 | 0.00 | 2.06 | 72 | 1005.1 |
| 20260504200603 | 12 | 20 | 3.2 | 3.2 | 0.00 | 0.00 | 2.06 | 72 | 1005.0 |
| 20260504200503 | 12 | 12 | 3.2 | 4.8 | 0.00 | 0.00 | 2.06 | 72 | 1005.3 |
| 20260504200424 | 12 | 6 | 3.2 | 4.8 | 0.00 | 0.00 | 2.06 | 73 | 1005.3 |
| 20260504200403 | 12 | 4 | 3.2 | 4.8 | 0.00 | 0.00 | 2.06 | 73 | 1005.0 |
| 20260504200303 | 12 | 359 | 3.2 | 4.8 | 0.00 | 0.00 | 2.06 | 73 | 1005.0 |
| 20260504200217 | 12 | 358 | 3.2 | 4.8 | 0.00 | 0.00 | 2.06 | 73 | 1005.0 |
| 20260504195903 | 12 | 2 | 3.2 | 4.8 | 0.00 | 0.00 | 2.06 | 73 | 1004.9 |
| 20260504195803 | 12 | 1 | 3.2 | 4.8 | 0.00 | 0.00 | 2.06 | 73 | 1004.9 |
| 20260504195703 | 12 | 356 | 3.2 | 4.8 | 0.00 | 0.00 | 2.06 | 72 | 1004.9 |
| 20260504195603 | 12 | 352 | 3.2 | 4.8 | 0.00 | 0.00 | 2.06 | 72 | 1005.1 |
| 20260504195503 | 12 | 351 | 3.2 | 4.8 | 0.00 | 0.00 | 2.06 | 72 | 1005.3 |
| 20260504195403 | 12 | 351 | 3.2 | 4.8 | 0.00 | 0.00 | 2.06 | 73 | 1004.9 |
| 20260504195304 | 12 | 350 | 3.2 | 4.8 | 0.00 | 0.00 | 2.06 | 73 | 1005.0 |
| 20260504195203 | 12 | 349 | 3.2 | 4.8 | 0.00 | 0.00 | 2.06 | 73 | 1004.9 |
| 20260504195103 | 12 | 348 | 3.2 | 4.8 | 0.00 | 0.00 | 2.06 | 73 | 1005.0 |
| 20260504195003 | 12 | 345 | 3.2 | 4.8 | 0.00 | 0.00 | 2.06 | 73 | 1005.1 |
| 20260504194919 | 12 | 345 | 3.2 | 4.8 | 0.00 | 0.00 | 2.06 | 74 | 1005.1 |
| 20260504194903 | 12 | 345 | 3.2 | 4.8 | 0.00 | 0.00 | 2.06 | 74 | 1004.9 |
| 20260504194803 | 12 | 345 | 3.2 | 4.8 | 0.00 | 0.00 | 2.06 | 73 | 1004.9 |
| 20260504194603 | 12 | 352 | 3.2 | 4.8 | 0.00 | 0.00 | 2.06 | 74 | 1005.0 |
| 20260504194517 | 12 | 353 | 3.2 | 4.8 | 0.00 | 0.00 | 2.06 | 74 | 1005.0 |
| 20260504194503 | 12 | 353 | 3.2 | 4.8 | 0.00 | 0.00 | 2.06 | 74 | 1005.3 |
| 20260504194416 | 12 | 353 | 3.2 | 4.8 | 0.00 | 0.00 | 2.06 | 73 | 1005.3 |
| 20260504194403 | 12 | 353 | 3.2 | 4.8 | 0.00 | 0.00 | 2.06 | 73 | 1004.9 |
| 20260504194103 | 12 | 352 | 3.2 | 4.8 | 0.00 | 0.00 | 2.06 | 73 | 1004.9 |
| 20260504194003 | 12 | 350 | 1.6 | 4.8 | 0.00 | 0.00 | 2.06 | 73 | 1005.0 |
| 20260504193903 | 12 | 353 | 1.6 | 4.8 | 0.00 | 0.00 | 2.06 | 73 | 1005.0 |
| 20260504193803 | 13 | 357 | 1.6 | 3.2 | 0.00 | 0.00 | 2.06 | 72 | 1005.0 |
| 20260504193703 | 13 | 2 | 1.6 | 3.2 | 0.00 | 0.00 | 2.06 | 72 | 1005.3 |
| 20260504193603 | 13 | 7 | 1.6 | 3.2 | 0.00 | 0.00 | 2.06 | 70 | 1005.3 |
| 20260504193503 | 13 | 13 | 1.6 | 3.2 | 0.00 | 0.00 | 2.06 | 71 | 1005.1 |
| 20260504193403 | 13 | 18 | 1.6 | 3.2 | 0.00 | 0.00 | 2.06 | 70 | 1005.0 |
| 20260504193303 | 13 | 22 | 1.6 | 3.2 | 0.00 | 0.00 | 2.06 | 70 | 1005.1 |
| 20260504193203 | 13 | 27 | 1.6 | 3.2 | 0.00 | 0.00 | 2.06 | 70 | 1005.1 |
| 20260504193103 | 13 | 32 | 1.6 | 3.2 | 0.00 | 0.00 | 2.06 | 69 | 1005.0 |
| 20260504193003 | 13 | 40 | 1.6 | 3.2 | 0.00 | 0.00 | 2.06 | 69 | 1005.3 |
| 20260504192903 | 13 | 41 | 1.6 | 3.2 | 0.00 | 0.00 | 2.06 | 68 | 1005.0 |
| 20260504192803 | 13 | 36 | 1.6 | 3.2 | 0.00 | 0.00 | 2.06 | 70 | 1005.0 |
| 20260504192703 | 13 | 33 | 1.6 | 3.2 | 0.00 | 0.00 | 2.06 | 68 | 1005.0 |
| 20260504192619 | 13 | 31 | 1.6 | 3.2 | 0.00 | 0.00 | 2.06 | 68 | 1005.0 |
| 20260504192603 | 13 | 31 | 1.6 | 3.2 | 0.00 | 0.00 | 2.06 | 68 | 1005.3 |
| 20260504192503 | 13 | 26 | 1.6 | 3.2 | 0.00 | 0.00 | 2.06 | 67 | 1005.1 |
| 20260504192304 | 13 | 21 | 1.6 | 3.2 | 0.00 | 0.00 | 2.06 | 68 | 1005.1 |
| 20260504192203 | 13 | 20 | 1.6 | 3.2 | 0.00 | 0.00 | 2.06 | 68 | 1005.3 |
| 20260504192103 | 13 | 20 | 1.6 | 3.2 | 0.00 | 0.00 | 2.06 | 68 | 1005.3 |
| 20260504192018 | 13 | 19 | 1.6 | 3.2 | 0.00 | 0.00 | 2.06 | 68 | 1005.3 |
| 20260504192003 | 13 | 19 | 1.6 | 3.2 | 0.00 | 0.00 | 2.06 | 68 | 1005.0 |
| 20260504191903 | 13 | 19 | 1.6 | 3.2 | 0.00 | 0.00 | 2.06 | 68 | 1005.0 |
| 20260504191820 | 13 | 23 | 3.2 | 3.2 | 0.00 | 0.00 | 2.06 | 67 | 1005.0 |
| 20260504191503 | 13 | 41 | 3.2 | 3.2 | 0.00 | 0.00 | 2.06 | 67 | 1005.3 |
| 20260504191403 | 13 | 47 | 3.2 | 3.2 | 0.00 | 0.00 | 2.06 | 67 | 1005.0 |
| 20260504191303 | 13 | 52 | 3.2 | 3.2 | 0.00 | 0.00 | 2.06 | 68 | 1005.1 |
| 20260504191219 | 13 | 55 | 3.2 | 3.2 | 0.00 | 0.00 | 2.06 | 68 | 1005.1 |
| 20260504191203 | 13 | 57 | 3.2 | 3.2 | 0.00 | 0.00 | 2.06 | 68 | 1005.1 |
| 20260504191103 | 14 | 62 | 3.2 | 3.2 | 0.00 | 0.00 | 2.06 | 67 | 1005.3 |
| 20260504190903 | 14 | 73 | 3.2 | 3.2 | 0.00 | 0.00 | 2.06 | 65 | 1005.1 |
| 20260504190803 | 14 | 76 | 3.2 | 3.2 | 0.00 | 0.00 | 2.06 | 65 | 1005.3 |
| 20260504190703 | 14 | 79 | 3.2 | 3.2 | 0.00 | 0.00 | 2.06 | 64 | 1005.4 |
| 20260504190603 | 14 | 80 | 3.2 | 3.2 | 0.00 | 0.00 | 2.06 | 64 | 1005.4 |
| 20260504190503 | 14 | 82 | 3.2 | 3.2 | 0.00 | 0.00 | 2.06 | 64 | 1005.1 |
| 20260504190403 | 14 | 83 | 3.2 | 3.2 | 0.00 | 0.00 | 2.06 | 64 | 1005.4 |
| 20260504190318 | 14 | 84 | 3.2 | 3.2 | 0.00 | 0.00 | 2.06 | 63 | 1005.4 |
| 20260504190303 | 14 | 84 | 3.2 | 3.2 | 0.00 | 0.00 | 2.06 | 63 | 1005.3 |
| 20260504190203 | 14 | 86 | 3.2 | 3.2 | 0.00 | 0.00 | 2.06 | 63 | 1005.1 |
| 20260504190003 | 14 | 88 | 1.6 | 3.2 | 0.00 | 0.00 | 2.06 | 63 | 1005.0 |
| 20260504185903 | 14 | 88 | 1.6 | 3.2 | 0.00 | 0.00 | 2.06 | 64 | 1005.0 |
| 20260504185803 | 14 | 87 | 1.6 | 3.2 | 0.00 | 0.00 | 2.06 | 64 | 1005.4 |
| 20260504185703 | 14 | 86 | 1.6 | 3.2 | 0.00 | 0.00 | 2.06 | 64 | 1005.3 |
| 20260504185603 | 14 | 81 | 1.6 | 3.2 | 0.00 | 0.00 | 2.06 | 65 | 1005.1 |
| 20260504185503 | 15 | 75 | 1.6 | 3.2 | 0.00 | 0.00 | 2.06 | 65 | 1005.3 |
| 20260504185403 | 15 | 67 | 1.6 | 6.4 | 0.00 | 0.00 | 2.06 | 65 | 1005.1 |
| 20260504185316 | 15 | 46 | 1.6 | 6.4 | 0.00 | 0.00 | 2.06 | 65 | 1005.1 |
| 20260504185304 | 15 | 25 | 1.6 | 6.4 | 0.00 | 0.00 | 2.06 | 64 | 1005.3 |
| 20260504185203 | 15 | 333 | 1.6 | 8.0 | 0.00 | 0.00 | 2.06 | 64 | 1005.5 |
| 20260504185003 | 15 | 303 | 3.2 | 8.0 | 0.00 | 0.00 | 2.06 | 66 | 1005.5 |
| 20260504184903 | 15 | 300 | 3.2 | 8.0 | 0.00 | 0.00 | 2.06 | 64 | 1005.3 |
| 20260504184803 | 15 | 299 | 3.2 | 8.0 | 0.00 | 0.00 | 2.06 | 65 | 1005.4 |
| 20260504184703 | 15 | 298 | 3.2 | 8.0 | 0.00 | 0.00 | 2.06 | 64 | 1005.3 |
| 20260504184603 | 15 | 297 | 3.2 | 8.0 | 0.00 | 0.00 | 2.06 | 64 | 1005.1 |
| 20260504184503 | 15 | 295 | 3.2 | 8.0 | 0.00 | 0.00 | 2.06 | 64 | 1005.5 |
| 20260504184403 | 15 | 300 | 3.2 | 8.0 | 0.00 | 0.00 | 2.06 | 70 | 1005.3 |
| 20260504184303 | 15 | 305 | 3.2 | 8.0 | 0.00 | 0.00 | 2.06 | 70 | 1005.3 |
| 20260504184203 | 15 | 312 | 3.2 | 8.0 | 0.00 | 0.00 | 2.06 | 70 | 1005.4 |
| 20260504184103 | 15 | 327 | 3.2 | 8.0 | 0.00 | 0.00 | 2.06 | 70 | 1005.5 |
| 20260504184003 | 15 | 3 | 1.6 | 8.0 | 0.00 | 0.00 | 2.06 | 70 | 1005.5 |
| 20260504183903 | 15 | 45 | 1.6 | 4.8 | 0.00 | 0.00 | 2.06 | 65 | 1005.3 |
| 20260504183803 | 15 | 62 | 1.6 | 3.2 | 0.00 | 0.00 | 2.06 | 61 | 1005.4 |
| 20260504183703 | 15 | 73 | 1.6 | 3.2 | 0.00 | 0.00 | 2.06 | 61 | 1005.1 |
| 20260504183603 | 15 | 78 | 1.6 | 3.2 | 0.00 | 0.00 | 2.06 | 61 | 1005.4 |
| 20260504183503 | 15 | 80 | 1.6 | 3.2 | 0.00 | 0.00 | 2.06 | 60 | 1005.3 |
| 20260504183403 | 15 | 82 | 1.6 | 3.2 | 0.00 | 0.00 | 2.06 | 59 | 1005.1 |
| 20260504183303 | 15 | 82 | 1.6 | 3.2 | 0.00 | 0.00 | 2.06 | 59 | 1005.0 |
| 20260504183203 | 16 | 79 | 1.6 | 3.2 | 0.00 | 0.00 | 2.06 | 59 | 1005.1 |
| 20260504183103 | 16 | 74 | 1.6 | 3.2 | 0.00 | 0.00 | 2.06 | 58 | 1005.0 |
| 20260504183016 | 16 | 69 | 1.6 | 3.2 | 0.00 | 0.00 | 2.06 | 58 | 1005.0 |
| 20260504183003 | 16 | 68 | 1.6 | 3.2 | 0.00 | 0.00 | 2.06 | 58 | 1005.4 |
| 20260504182919 | 16 | 64 | 1.6 | 3.2 | 0.00 | 0.00 | 2.06 | 58 | 1005.4 |
| 20260504182903 | 16 | 63 | 1.6 | 3.2 | 0.00 | 0.00 | 2.06 | 58 | 1005.1 |
| 20260504182603 | 16 | 55 | 1.6 | 3.2 | 0.00 | 0.00 | 2.06 | 58 | 1005.1 |
| 20260504182517 | 16 | 54 | 1.6 | 3.2 | 0.00 | 0.00 | 2.06 | 58 | 1005.1 |
| 20260504182503 | 16 | 54 | 1.6 | 3.2 | 0.00 | 0.00 | 2.06 | 58 | 1005.4 |
| 20260504182403 | 16 | 54 | 1.6 | 3.2 | 0.00 | 0.00 | 2.06 | 58 | 1005.3 |
| 20260504182203 | 16 | 51 | 1.6 | 3.2 | 0.00 | 0.00 | 2.06 | 58 | 1005.3 |
| 20260504182103 | 16 | 52 | 1.6 | 3.2 | 0.00 | 0.00 | 2.06 | 58 | 1005.4 |
| 20260504182003 | 16 | 50 | 1.6 | 3.2 | 0.00 | 0.00 | 2.06 | 58 | 1005.3 |
| 20260504181903 | 16 | 50 | 0.0 | 3.2 | 0.00 | 0.00 | 2.06 | 57 | 1005.4 |
| 20260504181803 | 16 | 51 | 0.0 | 3.2 | 0.00 | 0.00 | 2.06 | 57 | 1005.3 |
| 20260504181703 | 16 | 55 | 0.0 | 1.6 | 0.00 | 0.00 | 2.06 | 57 | 1005.4 |
| 20260504181603 | 16 | 72 | 0.0 | 1.6 | 0.00 | 0.00 | 2.06 | 57 | 1005.3 |
| 20260504181519 | 17 | 92 | 0.0 | 1.6 | 0.00 | 0.00 | 2.06 | 57 | 1005.3 |
| 20260504181503 | 17 | 95 | 0.0 | 1.6 | 0.00 | 0.00 | 2.06 | 57 | 1005.4 |
| 20260504181403 | 17 | 99 | 0.0 | 1.6 | 0.00 | 0.00 | 2.06 | 56 | 1005.4 |
| 20260504181103 | 17 | 99 | 0.0 | 1.6 | 0.00 | 0.00 | 2.06 | 55 | 1005.3 |
| 20260504181003 | 17 | 99 | 0.0 | 1.6 | 0.00 | 0.00 | 2.06 | 55 | 1005.4 |
| 20260504180918 | 17 | 99 | 0.0 | 1.6 | 0.00 | 0.00 | 2.06 | 55 | 1005.4 |
| 20260504180903 | 17 | 100 | 0.0 | 1.6 | 0.00 | 0.00 | 2.06 | 55 | 1005.5 |
| 20260504180803 | 17 | 101 | 0.0 | 1.6 | 0.00 | 0.00 | 2.06 | 53 | 1005.3 |
| 20260504180618 | 17 | 106 | 0.0 | 1.6 | 0.00 | 0.00 | 2.06 | 53 | 1005.3 |
| 20260504180603 | 17 | 107 | 0.0 | 1.6 | 0.00 | 0.00 | 2.06 | 54 | 1005.1 |
| 20260504180503 | 17 | 114 | 0.0 | 3.2 | 0.00 | 0.00 | 2.06 | 53 | 1005.1 |
| 20260504180303 | 17 | 118 | 0.0 | 3.2 | 0.00 | 0.00 | 2.06 | 53 | 1005.1 |
| 20260504180203 | 18 | 119 | 0.0 | 3.2 | 0.00 | 0.00 | 2.06 | 53 | 1005.3 |
| 20260504180119 | 18 | 119 | 0.0 | 3.2 | 0.00 | 0.00 | 2.06 | 53 | 1005.3 |
| 20260504180103 | 18 | 120 | 0.0 | 3.2 | 0.00 | 0.00 | 2.06 | 53 | 1005.4 |
| 20260504180003 | 18 | 121 | 0.0 | 3.2 | 0.00 | 0.00 | 2.06 | 53 | 1005.5 |
| 20260504175803 | 18 | 125 | 0.0 | 3.2 | 0.00 | 0.00 | 2.06 | 52 | 1005.4 |
| 20260504175703 | 18 | 127 | 0.0 | 3.2 | 0.00 | 0.00 | 2.06 | 51 | 1005.1 |
| 20260504175616 | 18 | 129 | 0.0 | 3.2 | 0.00 | 0.00 | 2.06 | 49 | 1005.1 |
| 20260504175603 | 18 | 130 | 0.0 | 3.2 | 0.00 | 0.00 | 2.06 | 49 | 1005.5 |
| 20260504175503 | 18 | 131 | 0.0 | 3.2 | 0.00 | 0.00 | 2.06 | 48 | 1005.1 |
| 20260504175304 | 19 | 136 | 0.0 | 3.2 | 0.00 | 0.00 | 2.06 | 47 | 1005.4 |
| 20260504175203 | 19 | 139 | 1.6 | 3.2 | 0.00 | 0.00 | 2.06 | 47 | 1005.3 |
| 20260504175103 | 19 | 141 | 1.6 | 3.2 | 0.00 | 0.00 | 2.06 | 46 | 1005.4 |
| 20260504175020 | 19 | 145 | 1.6 | 3.2 | 0.00 | 0.00 | 2.06 | 46 | 1005.4 |
| 20260504175003 | 19 | 145 | 1.6 | 3.2 | 0.00 | 0.00 | 2.06 | 46 | 1005.1 |
| 20260504174903 | 20 | 146 | 1.6 | 3.2 | 0.00 | 0.00 | 2.06 | 46 | 1005.1 |
| 20260504174703 | 20 | 157 | 1.6 | 3.2 | 0.00 | 0.00 | 2.06 | 45 | 1005.3 |
| 20260504174603 | 20 | 164 | 1.6 | 4.8 | 0.00 | 0.00 | 2.06 | 45 | 1005.4 |
| 20260504174503 | 20 | 171 | 1.6 | 4.8 | 0.00 | 0.00 | 2.06 | 44 | 1005.3 |
| 20260504174403 | 20 | 177 | 1.6 | 4.8 | 0.00 | 0.00 | 2.06 | 44 | 1005.5 |
| 20260504174303 | 20 | 186 | 1.6 | 4.8 | 0.00 | 0.00 | 2.06 | 43 | 1005.3 |
| 20260504174216 | 20 | 190 | 1.6 | 4.8 | 0.00 | 0.00 | 2.06 | 44 | 1005.3 |
| 20260504174203 | 20 | 191 | 1.6 | 4.8 | 0.00 | 0.00 | 2.06 | 44 | 1005.4 |
| 20260504174103 | 20 | 198 | 1.6 | 4.8 | 0.00 | 0.00 | 2.06 | 44 | 1005.4 |
| 20260504173903 | 21 | 207 | 1.6 | 4.8 | 0.00 | 0.00 | 2.06 | 42 | 1005.4 |
| 20260504173803 | 21 | 209 | 3.2 | 4.8 | 0.00 | 0.00 | 2.06 | 42 | 1005.5 |
| 20260504173703 | 21 | 210 | 3.2 | 4.8 | 0.00 | 0.00 | 2.06 | 42 | 1005.5 |
| 20260504173603 | 21 | 211 | 3.2 | 4.8 | 0.00 | 0.00 | 2.06 | 42 | 1005.5 |
| 20260504173403 | 21 | 204 | 3.2 | 4.8 | 0.00 | 0.00 | 2.06 | 40 | 1005.5 |
| 20260504173316 | 21 | 200 | 3.2 | 4.8 | 0.00 | 0.00 | 2.06 | 40 | 1005.5 |
| 20260504173303 | 21 | 200 | 3.2 | 6.4 | 0.00 | 0.00 | 2.06 | 41 | 1005.5 |
| 20260504173003 | 22 | 196 | 3.2 | 6.4 | 0.00 | 0.00 | 2.06 | 40 | 1005.5 |
| 20260504172903 | 22 | 196 | 3.2 | 6.4 | 0.00 | 0.00 | 2.06 | 40 | 1005.6 |
| 20260504172803 | 22 | 197 | 3.2 | 6.4 | 0.00 | 0.00 | 2.06 | 39 | 1005.6 |
| 20260504172703 | 22 | 198 | 3.2 | 6.4 | 0.00 | 0.00 | 2.06 | 39 | 1005.6 |
| 20260504172603 | 22 | 199 | 3.2 | 6.4 | 0.00 | 0.00 | 2.06 | 39 | 1005.5 |
| 20260504172503 | 22 | 207 | 3.2 | 12.9 | 0.00 | 0.00 | 2.06 | 38 | 1005.5 |
| 20260504172403 | 22 | 207 | 3.2 | 12.9 | 0.00 | 0.00 | 2.06 | 39 | 1005.6 |
| 20260504172318 | 22 | 210 | 3.2 | 12.9 | 0.00 | 0.00 | 2.06 | 38 | 1005.6 |
| 20260504172304 | 22 | 210 | 4.8 | 12.9 | 0.00 | 0.00 | 2.06 | 38 | 1005.5 |
| 20260504172203 | 22 | 207 | 4.8 | 12.9 | 0.00 | 0.00 | 2.06 | 38 | 1005.5 |
| 20260504172003 | 22 | 208 | 4.8 | 12.9 | 0.00 | 0.00 | 2.06 | 37 | 1005.5 |
| 20260504171903 | 22 | 206 | 4.8 | 12.9 | 0.00 | 0.00 | 2.06 | 38 | 1005.4 |
| 20260504171803 | 23 | 205 | 4.8 | 12.9 | 0.00 | 0.00 | 2.06 | 37 | 1005.6 |
| 20260504171703 | 23 | 206 | 4.8 | 12.9 | 0.00 | 0.00 | 2.06 | 37 | 1005.5 |
| 20260504171603 | 23 | 206 | 4.8 | 12.9 | 0.00 | 0.00 | 2.06 | 37 | 1005.5 |
| 20260504171503 | 23 | 205 | 4.8 | 12.9 | 0.00 | 0.00 | 2.06 | 35 | 1005.5 |
| 20260504171403 | 23 | 206 | 6.4 | 12.9 | 0.00 | 0.00 | 2.06 | 38 | 1005.5 |
| 20260504171304 | 23 | 203 | 4.8 | 12.9 | 0.00 | 0.00 | 2.06 | 36 | 1005.4 |
| 20260504171203 | 23 | 208 | 4.8 | 12.9 | 0.00 | 0.00 | 2.06 | 37 | 1005.5 |
| 20260504171103 | 23 | 210 | 4.8 | 12.9 | 0.00 | 0.00 | 2.06 | 37 | 1005.5 |
| 20260504171003 | 23 | 207 | 4.8 | 12.9 | 0.00 | 0.00 | 2.06 | 35 | 1005.5 |
| 20260504170903 | 23 | 207 | 4.8 | 12.9 | 0.00 | 0.00 | 2.06 | 35 | 1005.5 |
| 20260504170803 | 23 | 209 | 4.8 | 12.9 | 0.00 | 0.00 | 2.06 | 35 | 1005.5 |
| 20260504170703 | 23 | 210 | 4.8 | 12.9 | 0.00 | 0.00 | 2.06 | 35 | 1005.3 |
| 20260504170603 | 23 | 208 | 6.4 | 12.9 | 0.00 | 0.00 | 2.06 | 33 | 1005.5 |
| 20260504170503 | 23 | 205 | 4.8 | 12.9 | 0.00 | 0.00 | 2.06 | 32 | 1005.4 |
| 20260504170403 | 23 | 205 | 6.4 | 12.9 | 0.00 | 0.00 | 2.06 | 32 | 1005.3 |
| 20260504170303 | 23 | 207 | 4.8 | 12.9 | 0.00 | 0.00 | 2.06 | 32 | 1005.5 |
| 20260504170203 | 23 | 205 | 6.4 | 12.9 | 0.00 | 0.00 | 2.06 | 32 | 1005.5 |
| 20260504160403 | 25 | 194 | 8.0 | 20.9 | 0.00 | 0.00 | 2.06 | 30 | 1005.5 |
| 20260504160303 | 25 | 193 | 8.0 | 20.9 | 0.00 | 0.00 | 2.06 | 30 | 1005.5 |
| 20260504160203 | 25 | 193 | 8.0 | 20.9 | 0.00 | 0.00 | 2.06 | 30 | 1005.5 |
| 20260504160103 | 25 | 200 | 9.7 | 20.9 | 0.00 | 0.00 | 2.06 | 32 | 1005.6 |
| 20260504150903 | 25 | 174 | 11.3 | 24.1 | 0.00 | 0.00 | 2.06 | 30 | 1005.7 |